ZL1UCH Weather Reports


time (UTC)temp
F
wind
direction
speed
knots
gust
knots
rain 1hr
in
rain 24hr
in
rain mn
in
humidity
%
barometer
mb
20260505023041 68 116 3.5 7.0 0.00 0.00 0.00 81 1028.5
20260505021538 68 102 3.5 12.2 0.00 0.00 0.00 80 1028.6
20260505020036 68 39 2.6 7.8 0.00 0.00 0.00 80 1028.6
20260505014601 68 46 2.6 9.6 0.00 0.00 0.00 77 1028.8
20260505013042 68 51 6.1 12.2 0.00 0.00 0.00 75 1028.9
20260505011552 68 56 2.6 10.4 0.00 0.00 0.00 75 1029.1
20260505010037 68 89 7.0 13.9 0.00 0.00 0.00 72 1029.2
20260505004540 68 108 5.2 10.4 0.00 0.00 0.00 72 1029.3
20260505003035 67 61 7.0 11.3 0.00 0.00 0.00 78 1029.6
20260505001542 68 22 5.2 11.3 0.00 0.00 0.00 80 1029.8
20260505000054 68 124 3.5 8.7 0.00 0.00 0.00 80 1029.9
20260504234546 67 167 4.3 12.2 0.00 0.00 0.00 78 1030.0
20260504233055 67 52 4.3 11.3 0.00 0.00 0.00 79 1030.0
20260504231538 67 46 7.0 13.0 0.00 0.00 0.00 78 1030.2
20260504230043 67 96 7.8 14.8 0.00 0.00 0.00 79 1030.2
20260504224543 67 79 6.1 13.0 0.00 0.00 0.00 80 1030.1
20260504223054 68 15 3.5 10.4 0.00 0.00 0.00 78 1030.2
20260504221538 67 155 3.5 13.0 0.00 0.00 0.00 77 1030.3
20260504220036 68 56 3.5 8.7 0.00 0.00 0.00 75 1030.3
20260504214535 67 57 5.2 10.4 0.00 0.00 0.00 76 1030.2
20260504213053 66 68 7.0 11.3 0.00 0.00 0.00 76 1030.2
20260504211539 66 8 2.6 9.6 0.00 0.00 0.00 80 1030.5
20260504210051 65 51 2.6 5.2 0.00 0.00 0.00 81 1030.5
20260504204544 65 52 1.7 7.0 0.00 0.00 0.00 81 1030.5
20260504203058 65 67 4.3 8.7 0.00 0.00 0.00 81 1030.7
20260504201535 65 49 1.7 5.2 0.00 0.00 0.00 80 1030.7
20260504200041 64 41 1.7 5.2 0.00 0.00 0.00 80 1030.7
20260504194537 64 288 1.7 6.1 0.00 0.00 0.00 80 1030.6
20260504193037 64 95 1.7 6.1 0.00 0.00 0.00 80 1030.3
20260504191536 64 61 1.7 5.2 0.00 0.00 0.00 80 1030.2
20260504190037 64 4 3.5 7.8 0.00 0.00 0.00 80 1030.1
20260504184540 64 106 3.5 10.4 0.00 0.00 0.00 80 1030.1
20260504183037 64 49 3.5 6.1 0.00 0.00 0.00 80 1029.9
20260504181543 64 25 3.5 7.8 0.00 0.00 0.00 79 1029.9
20260504180035 65 318 2.6 10.4 0.00 0.00 0.00 79 1030.0
20260504174536 64 95 3.5 7.8 0.00 0.00 0.00 79 1029.9
20260504173036 65 25 3.5 8.7 0.00 0.00 0.00 79 1029.9
20260504171542 65 78 4.3 12.2 0.00 0.00 0.00 79 1029.9
20260504081541 64 104 7.8 17.4 0.00 0.00 0.00 80 1031.4
20260504044546 65 124 4.3 10.4 0.00 0.00 0.00 74 1030.7
20260504043039 66 134 4.3 13.0 0.00 0.00 0.00 73 1030.7
20260504041541 66 128 11.3 15.6 0.00 0.00 0.00 72 1030.6
20260504040100 66 129 8.7 13.9 0.00 0.00 0.00 72 1030.6
20260504034553 66 121 9.6 14.8 0.00 0.00 0.00 72 1030.5
20260504033046 66 137 7.0 13.9 0.00 0.00 0.00 74 1030.5
20260504031545 66 121 8.7 16.5 0.00 0.00 0.00 77 1030.4
20260504030104 66 127 13.0 17.4 0.00 0.00 0.00 75 1030.3
20260504024554 66 129 13.9 17.4 0.00 0.00 0.00 73 1030.4